Location: Croisilles
(50.1998°N, 2.8793°E)
Time: 13:40:33
(UTC+00:00)

NOSS 3-4 (A) - Pass Details

Date: 21 January 2021
Orbit: 877 x 1335 km, 63.4° (Epoch: 16 February)

Event Time Altitude Azimuth Distance (km) Brightness Sun altitude
Rises 17:08:15 0° 247° (WSW) 3,490 9.2 -7.2°
Reaches altitude 10° 17:10:47 10° 253° (WSW) 2,580 7.5 -7.5°
Maximum altitude 17:16:31 46° 327° (NNW) 1,250 4.2 -8.4°
Drops below altitude 10° 17:22:48 10° 40° (NE) 2,817 5.4 -9.3°
Enters shadow 17:23:31 - 42° (NE) 3,069 5.6 -9.4°
